Weather History for Istanbul, Turkey

Change the Weather History Date:

Friday, April 5, 2013

  Actual Average Record
Temperature  
Mean Temperature 59 °F -  
Max Temperature 68 °F 61 °F 72 °F (2014)
Min Temperature 50 °F 46 °F 33 °F (2004)
Degree Days  
Heating Degree Days 6    
Growing Degree Days 9 (Base 50)    
Moisture  
Dew Point 47 °F    
Average Humidity 66    
Maximum Humidity 100    
Minimum Humidity 25    
Precipitation  
Precipitation 0.00 in - - ()
Sea Level Pressure  
Sea Level Pressure 29.92 in    
Wind  
Wind Speed 5 mph ()    
Max Wind Speed 10 mph    
Max Gust Speed -    
Visibility 6.0 miles    
Events      
Averages and records for this station are not official NWS values.
T = Trace of Precipitation, MM = Missing Value Source: Averaged Metar Reports

Daily Weather History Graph

Daily Weather History Graph

Search for Another Location

Airport:

Trip Planner

Search our weather history database for the weather conditions in past years. The results will help you decide how hot, cold, wet, or windy it might be!

Date:

Astronomy

Apr. 05, 2013 Rise Set
Actual Time 6:41 AM EEST 7:33 PM EEST
Civil Twilight 6:13 AM EEST 8:01 PM EEST
Nautical Twilight 5:40 AM EEST 8:35 PM EEST
Astronomical Twilight 5:06 AM EEST 9:09 PM EEST
Moon 3:38 AM EEST (4/5) 2:34 PM EEST (4/5)
Length of Visible Light 13h 48m
Length of Day
12h 52m
Waning Crescent, 26% of the Moon is Illuminated
Apr 5
Waning Crescent
Apr 10
New
Apr 18
First Quarter
Apr 25
Full
May 2
Last Quarter

Hourly Weather History & Observations

Time (EEST) Temp. Dew Point Humidity Pressure Visibility Wind Dir Wind Speed Gust Speed Precip Events Conditions
12:20 AM 53.6 °F 50.0 °F 88% 29.92 in - SSW 4.6 mph - N/A   Clear
12:50 AM 53.6 °F 50.0 °F 88% 29.95 in - SW 5.8 mph - N/A   Clear
1:20 AM 55.4 °F 50.0 °F 82% 29.95 in - West 5.8 mph - N/A   Clear
1:50 AM 53.6 °F 50.0 °F 88% 29.95 in - SW 4.6 mph - N/A   Clear
2:20 AM 51.8 °F 48.2 °F 88% 29.95 in - SSW 4.6 mph - N/A   Clear
2:50 AM 51.8 °F 50.0 °F 94% 29.95 in - SSW 6.9 mph - N/A   Clear
3:00 AM 52 °F 49 °F 86% 29.96 in 6 mi SSW 6.9 mph - -  
3:20 AM 51.8 °F 50.0 °F 94% 29.95 in - South 3.5 mph - N/A   Clear
3:50 AM 50.0 °F 50.0 °F 100% 29.95 in - South 5.8 mph - N/A   Clear
4:20 AM 51.8 °F 51.8 °F 100% 29.95 in - SSW 5.8 mph - N/A   Clear
4:50 AM 51.8 °F 50.0 °F 94% 29.98 in - SW 4.6 mph - N/A   Clear
5:20 AM 51.8 °F 48.2 °F 88% 29.98 in - SSW 5.8 mph - N/A   Clear
5:50 AM 50.0 °F 48.2 °F 94% 29.98 in - SE 1.2 mph - N/A   Clear
6:20 AM 50.0 °F 50.0 °F 100% 29.98 in - Variable 2.3 mph - N/A   Clear
6:50 AM 51.8 °F 48.2 °F 88% 29.98 in - SSW 4.6 mph - N/A   Clear
7:20 AM 53.6 °F 48.2 °F 82% 29.98 in - SSW 3.5 mph - N/A   Clear
7:50 AM 53.6 °F 48.2 °F 82% 29.98 in - South 3.5 mph - N/A   Clear
8:20 AM 55.4 °F 48.2 °F 77% 29.98 in - SE 5.8 mph - N/A   Clear
8:50 AM 59.0 °F 48.2 °F 67% 29.98 in - SE 8.1 mph - N/A   Clear
9:00 AM 58 °F 47 °F 58% 30.00 in 6 mi SE 8.1 mph - -  
9:20 AM 59.0 °F 48.2 °F 67% 30.01 in - SE 8.1 mph - N/A   Clear
9:50 AM 57.2 °F 48.2 °F 72% 30.01 in - South 6.9 mph - N/A   Clear
10:20 AM 59.0 °F 48.2 °F 67% 30.01 in - SSW 8.1 mph - N/A   Clear
10:50 AM 59.0 °F 48.2 °F 67% 30.01 in - SSW 8.1 mph - N/A   Clear
11:20 AM 60.8 °F 48.2 °F 63% 30.01 in - South 6.9 mph - N/A   Clear
11:50 AM 60.8 °F 46.4 °F 59% 30.01 in - SSW 8.1 mph - N/A   Clear
12:20 PM 60.8 °F 46.4 °F 59% 30.01 in - SSW 8.1 mph - N/A   Clear
12:50 PM 60.8 °F 48.2 °F 63% 29.98 in - SW 8.1 mph - N/A   Clear
1:20 PM 60.8 °F 48.2 °F 63% 29.98 in - SW 9.2 mph - N/A   Clear
1:50 PM 60.8 °F 46.4 °F 59% 29.98 in - SW 6.9 mph - N/A   Clear
2:20 PM 62.6 °F 46.4 °F 55% 29.95 in - SW 5.8 mph - N/A   Clear
2:50 PM 64.4 °F 46.4 °F 52% 29.92 in - SSW 4.6 mph - N/A   Clear
3:00 PM 64 °F 46 °F 40% 29.94 in 6 mi SSW 4.6 mph - -  
3:20 PM 64.4 °F 44.6 °F 49% 29.92 in - West 3.5 mph - N/A   Clear
3:50 PM 64.4 °F 46.4 °F 52% 29.92 in - South 5.8 mph - N/A   Clear
4:20 PM 62.6 °F 48.2 °F 59% 29.89 in - East 5.8 mph - N/A   Clear
4:50 PM 64.4 °F 44.6 °F 49% 29.86 in - ESE 6.9 mph - N/A   Clear
5:20 PM 64.4 °F 42.8 °F 45% 29.86 in - SE 5.8 mph - N/A   Clear
5:50 PM 64.4 °F 42.8 °F 45% 29.83 in - ESE 5.8 mph - N/A   Clear
6:20 PM 64.4 °F 42.8 °F 45% 29.83 in - Variable 3.5 mph - N/A   Clear
6:50 PM 66.2 °F 42.8 °F 43% 29.83 in - Calm Calm - N/A   Clear
7:20 PM 64.4 °F 42.8 °F 45% 29.83 in - West 5.8 mph - N/A   Clear
7:50 PM 64.4 °F 42.8 °F 45% 29.83 in - West 4.6 mph - N/A   Clear
8:20 PM 64.4 °F 42.8 °F 45% 29.83 in - Variable 1.2 mph - N/A   Clear
8:50 PM 68.0 °F 42.8 °F 40% 29.83 in - ESE 6.9 mph - N/A   Clear
9:00 PM 69 °F 41 °F 25% 29.83 in 6 mi ESE 6.9 mph - -  
9:20 PM 66.2 °F 42.8 °F 43% 29.80 in - SE 9.2 mph - N/A   Clear
9:50 PM 66.2 °F 41.0 °F 40% 29.80 in - SSE 8.1 mph - N/A   Clear
10:20 PM 62.6 °F 42.8 °F 48% 29.80 in - SE 10.4 mph - N/A   Clear
10:50 PM 59.0 °F 44.6 °F 59% 29.80 in - SE 6.9 mph - N/A   Clear
11:20 PM 59.0 °F 46.4 °F 63% 29.80 in - Variable 2.3 mph - N/A   Clear
11:50 PM 60.8 °F 48.2 °F 63% 29.80 in - SSW 4.6 mph - N/A   Clear